Temp
64 64 64 64 64 64 64 64 64 64 64 64 64 64 64 63 63 60 54 62 64 70 67 60 59 57 57 51 52 51 37 33 36 38 42 49 47 53 58 53 55 60 58 63 68
64 64 64 64 63 63 63 63 64 64 64 64 64 64 64 63 55 55 67 70 70 70 59 54 52 53 48 48 48 43 36 39 45 45 44 48 48 50 50 51 54 58 61 65 65
64 64 63 63 63 63 63 63 63 63 63 63 63 63 63 60 52 56 70 70 70 67 60 57 55 52 45 47 45 43 38 44 49 50 50 49 47 52 48 47 53 54 56 61 63
64 63 63 62 63 63 63 63 63 63 63 63 63 63 62 54 42 57 69 70 70 63 59 55 52 45 42 40 46 39 46 47 49 51 49 47 50 47 50 52 56 57 59 60 62
63 63 62 62 62 62 62 62 62 63 63 62 62 62 56 49 52 63 69 67 62 59 55 52 47 44 40 42 44 41 44 48 50 49 49 50 47 47 48 55 57 59 60 60 61
63 62 62 61 61 61 61 62 62 62 62 62 62 61 51 45 61 63 62 60 60 56 53 52 48 49 43 42 40 44 44 45 47 48 48 47 48 47 50 55 56 57 59 61 59
62 61 61 61 61 61 61 61 61 61 61 61 62 58 49 51 61 61 61 58 59 57 52 54 53 47 45 41 47 45 39 43 44 46 45 48 43 42 51 52 53 55 57 60 58
61 60 60 60 60 60 60 60 60 60 60 61 61 53 47 60 59 59 59 57 59 58 56 56 54 48 45 46 45 40 39 32 44 46 48 46 36 47 51 50 51 53 55 57 58
60 59 59 59 59 59 59 60 61 61 61 61 52 49 47 62 55 59 59 55 56 56 56 61 52 44 44 37 33 35 29 32 36 46 45 43 39 47 51 50 50 51 52 54 55
59 58 58 58 58 59 59 60 62 59 59 59 59 46 52 52 55 57 57 57 53 52 50 48 43 38 36 34 25 25 30 32 33 41 43 40 40 47 50 49 48 49 49 50 52
58 57 57 58 58 58 55 52 50 48 49 51 50 49 53 56 58 54 57 54 52 47 39 42 37 32 37 37 38 36 33 32 38 44 38 38 40 45 50 46 47 47 46 47 50
57 57 57 57 58 58 52 49 47 49 43 50 50 51 54 55 50 52 57 47 45 39 41 36 34 40 43 41 38 36 32 33 38 42 40 39 39 45 46 45 48 48 46 47 49
56 56 56 57 57 54 49 48 53 51 40 47 51 51 52 55 49 50 53 47 43 38 38 34 39 45 42 38 37 35 32 32 34 39 39 38 34 37 43 44 47 48 49 49 49
56 56 56 56 53 48 48 52 53 51 32 44 48 52 53 53 47 55 54 49 43 39 38 37 42 41 38 37 38 32 39 38 37 33 26 37 24 33 39 42 44 45 44 46 48
55 55 56 56 48 48 51 53 52 49 22 48 47 57 52 49 47 48 53 47 40 40 39 38 37 38 36 39 40 37 40 38 36 32 28 29 23 33 36 41 45 46 45 45 46
55 55 55 50 47 49 52 50 50 34 26 41 47 45 45 47 48 47 47 48 46 40 39 39 42 41 41 43 42 43 38 36 32 30 22 27 26 30 35 41 43 44 46 48 47
54 54 52 52 46 51 50 47 31 25 47 41 41 42 42 43 44 44 42 39 37 32 32 38 38 41 44 38 40 38 31 23 22 20 22 30 26 33 41 44 44 45 46 46 47
54 53 52 53 50 50 47 40 26 38 39 44 42 41 39 42 42 41 38 36 38 36 32 27 30 39 43 40 37 35 33 24 19 21 25 30 25 34 43 45 45 45 46 47 47
52 46 46 49 51 48 42 25 31 35 41 40 42 34 36 41 39 38 36 37 39 39 32 28 32 41 42 41 42 34 31 35 30 25 23 28 33 41 42 44 44 44 45 45 50
40 43 45 50 48 44 36 34 34 43 43 41 34 36 32 36 37 35 34 41 40 40 38 35 30 39 41 41 40 38 40 29 27 21 21 28 27 29 36 42 44 43 43 45 49
38 39 48 49 47 40 27 29 38 45 44 40 37 35 36 33 34 33 36 41 43 41 39 35 32 34 38 36 34 33 32 33 31 28 23 21 29 38 40 42 42 42 43 44 48
35 34 47 46 36 30 30 34 43 41 41 41 40 38 34 36 32 32 33 36 40 41 36 37 32 25 34 38 39 36 34 33 28 26 26 26 30 49 44 44 43 42 44 44 48
32 32 44 43 27 28 32 36 39 36 35 36 34 35 36 33 32 33 35 40 39 38 35 38 31 22 30 34 36 32 35 35 33 30 27 23 32 45 42 42 43 41 42 43 46
34 27 32 35 33 28 28 30 31 37 34 36 33 35 32 29 34 30 32 36 38 38 46 42 31 30 26 31 33 32 34 35 33 24 28 32 38 46 50 49 50 45 43 42 44
30 30 28 21 27 26 27 29 29 26 32 34 31 29 27 23 27 27 30 31 36 40 36 34 26 27 30 32 33 33 33 35 31 35 28 36 38 45 49 49 52 49 44 42 43
26 25 28 25 27 26 28 26 27 27 28 28 27 28 28 24 27 23 25 26 27 32 30 33 29 30 28 34 33 31 35 36 35 36 35 37 36 49 50 49 44 44 42 41 44
32 32 30 28 26 25 24 26 27 29 32 34 30 27 25 29 31 32 33 32 31 28 28 28 27 28 23 32 31 26 33 35 37 38 37 32 41 47 45 44 43 44 42 42 42
MSLP
1021.24 1020.98 1020.62 1020.39 1020.09 1019.83 1019.54 1019.27 1019.02 1018.76 1018.51 1018.22 1017.91 1017.65 1017.39 1017.10 1016.62 1016.22 1016.17 1016.09 1015.83 1015.55 1015.51 1015.48 1015.41 1015.52 1015.46 1015.83 1016.10 1016.33 1017.15 1017.05 1016.59 1016.02 1015.04 1014.06 1013.80 1013.20 1012.55 1012.33 1011.37 1010.12 1009.55 1009.01 1008.37
1021.27 1020.92 1020.60 1020.30 1020.08 1019.72 1019.45 1019.22 1019.01 1018.78 1018.55 1018.26 1017.94 1017.65 1017.41 1017.17 1017.00 1016.35 1015.72 1015.57 1015.51 1015.48 1015.83 1016.00 1016.05 1016.04 1016.11 1016.16 1016.36 1016.72 1016.95 1016.37 1015.63 1015.07 1014.74 1014.16 1013.85 1013.42 1012.85 1012.07 1011.20 1010.09 1009.18 1008.55 1008.13
1021.36 1020.94 1020.55 1020.19 1019.88 1019.61 1019.29 1019.01 1018.79 1018.63 1018.46 1018.24 1018.01 1017.68 1017.37 1017.23 1017.13 1015.80 1015.40 1015.40 1015.44 1015.56 1015.85 1016.08 1016.32 1016.42 1016.51 1016.38 1016.45 1016.62 1016.52 1015.85 1015.03 1014.72 1014.41 1014.05 1013.60 1013.21 1012.93 1011.97 1010.84 1010.17 1009.45 1008.84 1008.49
1021.43 1021.01 1020.60 1020.17 1019.78 1019.41 1019.09 1018.79 1018.55 1018.32 1018.19 1018.02 1017.84 1017.62 1017.33 1017.34 1016.88 1015.46 1015.30 1015.34 1015.47 1015.65 1015.87 1016.06 1016.31 1016.62 1016.85 1016.74 1016.60 1016.75 1016.08 1015.60 1014.71 1014.31 1014.12 1013.82 1013.37 1012.90 1012.49 1011.54 1010.67 1010.01 1009.54 1009.00 1008.61
1021.47 1021.04 1020.57 1020.11 1019.71 1019.25 1018.86 1018.52 1018.28 1018.08 1017.98 1017.86 1017.72 1017.61 1017.36 1017.19 1015.96 1015.17 1015.21 1015.36 1015.58 1015.78 1016.05 1016.27 1016.56 1016.96 1017.19 1017.07 1016.87 1016.50 1015.96 1015.35 1014.54 1014.14 1013.83 1013.50 1013.19 1012.76 1011.91 1011.05 1010.30 1009.61 1009.27 1008.82 1008.40
1021.53 1021.03 1020.53 1020.02 1019.51 1019.04 1018.62 1018.24 1017.91 1017.79 1017.75 1017.67 1017.67 1017.65 1017.59 1016.97 1015.19 1015.17 1015.30 1015.56 1015.75 1015.92 1016.05 1016.22 1016.59 1016.92 1017.30 1017.28 1017.15 1016.26 1015.82 1015.12 1014.21 1013.50 1013.27 1013.05 1012.46 1012.66 1011.32 1009.98 1009.78 1009.19 1008.79 1008.31 1008.21
1021.64 1021.12 1020.53 1019.92 1019.36 1018.76 1018.26 1017.87 1017.63 1017.32 1017.28 1017.37 1017.43 1017.67 1017.52 1015.94 1015.07 1015.22 1015.37 1015.59 1015.73 1015.90 1016.09 1016.23 1016.37 1016.76 1017.15 1017.26 1016.87 1016.43 1015.98 1014.89 1013.64 1013.25 1012.89 1012.45 1012.29 1011.84 1010.45 1010.02 1009.76 1009.26 1008.77 1008.10 1008.02
1021.76 1021.18 1020.62 1019.89 1019.15 1018.54 1018.00 1017.55 1017.18 1017.10 1016.90 1016.89 1017.19 1017.50 1016.57 1015.27 1015.26 1015.34 1015.44 1015.53 1015.65 1015.88 1016.07 1016.13 1016.34 1016.70 1017.00 1016.98 1016.74 1016.71 1016.26 1015.68 1013.93 1013.19 1012.54 1012.43 1011.82 1010.91 1010.12 1009.88 1009.54 1009.23 1008.74 1008.27 1007.96
1021.86 1021.27 1020.57 1019.85 1019.11 1018.28 1017.69 1017.17 1016.90 1016.77 1016.97 1016.86 1017.18 1017.31 1016.15 1015.24 1015.35 1015.03 1015.23 1015.53 1015.61 1015.82 1015.95 1016.07 1016.37 1016.85 1017.09 1017.31 1017.39 1017.15 1016.87 1015.88 1014.81 1013.31 1012.79 1012.67 1011.50 1010.52 1009.97 1009.84 1009.47 1009.12 1008.71 1008.39 1007.78
1021.94 1021.32 1020.62 1019.84 1019.00 1018.03 1017.28 1016.92 1016.78 1016.91 1017.09 1017.08 1017.00 1017.42 1015.84 1015.13 1015.01 1015.07 1015.19 1015.43 1015.68 1015.87 1016.16 1016.34 1016.86 1017.18 1017.47 1017.66 1017.84 1017.57 1017.09 1016.03 1015.38 1013.77 1013.16 1012.59 1011.24 1009.94 1009.52 1009.50 1009.11 1008.80 1008.63 1008.39 1007.90
1021.92 1021.30 1020.58 1019.74 1018.91 1018.18 1017.38 1017.23 1017.54 1017.44 1017.19 1016.28 1015.96 1015.57 1015.09 1014.79 1014.78 1015.07 1015.14 1015.45 1015.74 1016.16 1016.54 1016.76 1017.34 1017.25 1016.79 1016.97 1016.91 1017.17 1016.99 1016.24 1014.75 1013.51 1013.28 1012.29 1011.04 1009.11 1008.40 1008.74 1008.44 1008.17 1008.23 1008.01 1007.63
1021.98 1021.32 1020.58 1019.74 1018.87 1018.08 1017.77 1018.30 1018.51 1018.83 1017.43 1015.77 1015.58 1015.41 1014.97 1014.68 1014.92 1015.00 1015.29 1015.85 1016.05 1016.32 1016.64 1017.22 1016.79 1015.81 1016.06 1016.27 1016.60 1016.73 1016.66 1015.64 1014.16 1013.48 1013.20 1011.86 1010.17 1008.37 1007.72 1007.87 1007.70 1007.67 1007.70 1007.54 1007.28
1022.06 1021.35 1020.52 1019.61 1018.77 1018.31 1018.56 1018.58 1018.60 1018.76 1018.48 1015.53 1014.92 1014.50 1014.30 1014.59 1014.69 1014.72 1015.35 1015.62 1016.01 1016.26 1016.45 1016.69 1015.48 1015.24 1015.57 1015.73 1016.12 1016.02 1016.02 1015.30 1014.78 1013.65 1012.97 1012.24 1010.21 1008.78 1007.55 1007.24 1007.18 1007.13 1006.98 1006.95 1006.83
1021.90 1021.26 1020.45 1019.48 1018.91 1019.19 1018.91 1018.59 1018.61 1018.78 1018.80 1015.63 1014.69 1014.01 1014.22 1014.38 1014.68 1014.53 1014.91 1015.53 1015.89 1016.06 1016.09 1015.96 1015.04 1014.97 1015.13 1015.27 1015.51 1015.44 1014.62 1014.83 1014.78 1014.71 1014.58 1013.60 1012.59 1009.79 1008.29 1007.35 1006.76 1006.52 1006.75 1006.49 1006.38
1021.75 1021.02 1020.48 1020.13 1019.66 1019.32 1019.11 1018.77 1018.66 1018.81 1018.22 1015.20 1014.37 1013.99 1014.16 1014.63 1014.61 1014.67 1014.87 1015.22 1015.61 1015.81 1016.29 1015.11 1014.80 1014.76 1014.78 1014.40 1014.53 1014.37 1014.21 1014.54 1014.67 1014.99 1015.03 1014.28 1014.00 1009.81 1008.83 1007.65 1006.79 1006.30 1006.18 1006.18 1006.18
1021.40 1020.57 1020.08 1019.78 1019.82 1019.12 1018.83 1018.65 1018.81 1019.03 1017.07 1014.80 1014.25 1014.14 1014.45 1014.49 1014.44 1014.75 1015.03 1015.22 1015.54 1015.72 1015.63 1014.97 1014.52 1014.40 1013.76 1013.47 1013.65 1013.78 1014.13 1014.41 1014.83 1015.36 1015.30 1014.24 1014.03 1010.39 1008.79 1007.55 1006.77 1006.13 1005.85 1005.82 1005.84
1020.86 1019.93 1019.52 1019.81 1019.80 1019.23 1019.06 1019.28 1019.69 1018.41 1015.65 1015.07 1014.74 1014.57 1014.71 1014.66 1014.63 1014.83 1015.18 1015.48 1015.70 1015.93 1015.49 1014.71 1014.18 1013.55 1013.30 1013.48 1013.54 1013.91 1014.59 1015.16 1015.43 1015.51 1014.99 1014.08 1013.80 1010.16 1007.90 1007.19 1006.91 1006.53 1005.83 1005.54 1005.51
1020.34 1019.93 1019.79 1019.64 1019.44 1019.33 1019.37 1019.76 1019.92 1017.57 1016.44 1015.46 1015.05 1014.84 1014.93 1014.71 1014.76 1014.98 1015.16 1015.25 1015.05 1015.60 1015.97 1015.45 1013.99 1013.22 1012.86 1012.95 1013.12 1013.86 1014.54 1015.53 1016.03 1015.78 1015.05 1014.12 1012.61 1009.02 1007.18 1006.69 1006.43 1006.35 1006.04 1005.53 1004.99
1020.26 1020.18 1020.20 1020.16 1019.76 1019.46 1019.90 1020.61 1018.94 1018.18 1017.46 1016.58 1015.67 1015.38 1015.15 1015.07 1015.22 1015.18 1015.24 1015.10 1014.73 1014.99 1015.52 1015.28 1014.15 1013.02 1012.94 1012.84 1013.13 1013.92 1014.35 1014.61 1015.27 1015.61 1015.40 1013.14 1011.14 1008.44 1006.92 1006.56 1006.40 1006.24 1006.02 1005.74 1004.96
1021.26 1020.91 1020.79 1020.18 1019.98 1020.10 1020.48 1020.23 1019.42 1018.65 1018.01 1017.19 1016.77 1016.31 1016.16 1015.77 1015.84 1015.60 1015.29 1014.83 1014.83 1014.85 1014.73 1014.83 1014.47 1013.13 1012.79 1012.86 1013.21 1013.54 1013.92 1014.64 1015.33 1015.53 1014.87 1012.46 1011.12 1009.32 1007.54 1006.89 1006.42 1006.35 1006.04 1005.69 1005.16
1021.77 1021.36 1020.60 1019.99 1019.83 1020.65 1021.42 1021.27 1020.26 1019.43 1019.02 1018.22 1017.69 1017.39 1017.15 1017.01 1016.60 1016.37 1015.89 1015.62 1015.68 1015.29 1015.05 1015.09 1015.27 1013.99 1013.45 1013.17 1013.04 1013.82 1014.05 1014.50 1014.88 1014.79 1014.36 1012.84 1009.81 1008.10 1007.15 1006.70 1006.61 1006.27 1006.04 1005.68 1005.17
1022.65 1022.46 1021.15 1020.25 1021.18 1022.51 1022.62 1022.26 1021.27 1020.52 1020.31 1019.76 1019.19 1018.93 1018.80 1018.32 1017.85 1017.36 1016.91 1017.05 1016.80 1016.28 1015.96 1015.56 1015.40 1014.93 1013.65 1012.80 1012.76 1013.10 1013.45 1013.92 1014.50 1014.47 1013.84 1012.64 1007.93 1005.97 1005.98 1006.07 1006.22 1005.96 1005.70 1005.39 1005.09
1024.49 1023.98 1022.07 1021.45 1023.91 1024.61 1024.03 1023.22 1022.71 1022.12 1022.26 1021.83 1021.60 1021.40 1020.84 1020.15 1019.48 1018.53 1018.20 1017.82 1017.90 1017.77 1017.71 1016.64 1016.04 1015.68 1014.16 1013.62 1013.19 1013.17 1013.36 1013.56 1013.89 1013.86 1012.84 1012.14 1007.62 1005.63 1005.45 1005.71 1005.73 1005.89 1005.56 1005.29 1005.19
1025.14 1025.53 1025.25 1025.18 1026.56 1026.56 1026.27 1025.21 1024.45 1023.88 1023.85 1023.70 1023.77 1023.14 1022.70 1022.01 1021.19 1020.62 1020.00 1019.18 1019.00 1018.75 1017.96 1017.19 1016.71 1016.32 1015.47 1014.42 1014.07 1013.57 1013.17 1013.29 1013.54 1013.22 1011.97 1009.93 1007.41 1005.17 1004.35 1005.24 1004.60 1004.78 1004.87 1005.03 1005.14
1027.15 1028.69 1028.93 1028.46 1027.85 1027.76 1027.27 1026.77 1026.21 1025.95 1025.25 1024.91 1024.84 1025.52 1025.30 1024.18 1023.02 1022.02 1021.68 1021.21 1020.07 1019.61 1018.89 1018.56 1017.71 1016.83 1016.00 1015.48 1014.67 1013.59 1012.96 1012.89 1012.75 1011.70 1011.67 1008.75 1007.62 1004.79 1003.89 1004.36 1004.07 1004.06 1004.28 1004.80 1004.96
1029.10 1029.66 1029.44 1029.43 1029.00 1028.47 1027.72 1027.72 1027.57 1027.40 1027.07 1026.09 1026.28 1026.26 1025.89 1025.38 1024.67 1023.91 1023.59 1023.66 1021.85 1020.62 1020.29 1019.55 1018.25 1017.53 1016.18 1015.80 1014.71 1012.86 1012.03 1011.66 1010.59 1010.26 1009.50 1008.17 1006.55 1003.75 1004.32 1004.04 1003.95 1003.71 1004.06 1004.60 1004.69
1029.79 1029.99 1029.90 1029.83 1029.39 1029.03 1028.86 1028.49 1028.27 1028.33 1027.29 1026.94 1026.75 1026.30 1025.64 1025.07 1024.77 1024.26 1023.56 1022.95 1021.84 1021.24 1021.26 1020.61 1019.50 1018.59 1015.78 1015.72 1014.41 1011.99 1009.88 1009.51 1008.61 1008.19 1007.65 1007.16 1005.38 1004.87 1004.24 1004.08 1003.68 1003.32 1003.65 1003.89 1004.52
Wind_Speed
14 14 13 14 14 14 15 14 13 13 12 12 13 13 14 15 13 1 2 3 4 9 7 6 5 7 2 3 2 3 1 4 5 3 5 3 5 4 5 6 5 5 4 10 9
15 15 14 13 13 13 14 15 15 14 14 14 13 13 14 13 3 3 3 4 5 7 5 7 6 7 3 2 2 2 2 6 7 4 6 6 4 5 4 7 6 6 6 11 17
17 16 15 14 13 13 13 13 14 14 14 13 13 13 13 7 3 3 5 2 3 4 1 0 2 1 2 2 1 2 5 3 8 8 8 8 5 5 5 9 9 7 12 9 12
18 18 17 15 14 14 14 14 13 13 12 11 12 12 13 0 3 2 4 1 3 3 1 2 3 3 2 2 2 4 7 6 7 5 5 6 3 5 10 14 12 11 9 7 10
19 20 19 18 17 15 14 14 13 12 11 10 10 10 4 2 8 4 3 2 2 2 2 2 3 2 3 3 4 5 6 8 10 10 9 10 14 9 7 14 11 14 10 8 6
21 21 21 20 18 17 15 14 13 12 11 8 7 6 0 4 2 5 5 2 1 1 1 2 1 1 3 4 2 3 6 14 11 15 8 8 13 4 9 15 13 11 9 8 7
22 22 22 22 21 19 16 15 13 11 9 7 4 1 1 11 1 4 5 2 3 2 1 1 2 2 1 5 4 6 6 8 4 2 5 4 5 6 13 5 8 12 9 8 8
22 23 24 23 23 21 18 16 13 11 8 5 4 2 7 1 2 2 2 2 2 2 2 2 2 2 3 4 6 5 1 6 6 4 3 3 8 9 8 4 5 9 7 8 4
23 24 24 25 25 23 20 15 8 3 1 7 4 2 8 2 2 4 5 2 1 1 2 1 2 1 4 3 4 4 5 4 9 4 2 0 13 7 8 6 10 9 9 9 8
24 25 25 26 25 23 18 3 3 5 3 1 1 3 3 3 2 2 2 2 1 1 1 1 3 2 2 3 3 6 6 5 7 6 5 12 18 16 12 10 13 11 8 8 10
24 26 26 26 24 24 9 3 6 3 1 8 4 3 2 1 3 2 3 4 2 1 2 0 2 6 9 6 5 4 4 9 12 13 5 9 15 22 15 9 13 12 9 9 10
25 26 26 27 26 21 2 5 2 2 10 5 6 5 5 2 3 3 5 3 3 4 3 2 8 8 5 4 4 5 6 10 10 4 4 11 21 17 10 8 13 12 9 9 7
26 25 26 27 27 4 2 2 2 2 3 7 5 4 3 7 5 4 8 3 5 3 5 6 4 2 3 2 4 4 6 6 8 8 4 9 9 8 5 2 5 8 9 7 10
27 26 25 25 3 4 2 1 2 2 5 6 3 2 3 3 3 2 7 2 2 5 3 7 4 3 4 5 6 5 4 5 7 7 4 5 8 7 6 11 5 7 8 10 9
28 27 23 14 5 1 1 0 3 2 6 2 2 1 2 3 1 2 3 2 5 3 3 9 2 4 4 7 7 9 1 4 2 3 3 2 2 12 3 7 7 7 6 8 8
29 28 20 0 1 4 2 1 3 8 9 4 2 0 1 2 2 2 1 1 1 3 4 9 2 4 7 4 7 4 4 2 3 2 2 3 4 10 4 5 6 6 8 7 5
30 26 6 0 2 4 2 3 7 6 3 3 3 1 2 3 3 4 3 3 4 4 4 4 4 4 4 2 1 3 4 5 6 4 6 1 1 13 10 10 7 11 12 9 6
26 12 2 0 4 2 2 6 3 5 5 4 3 1 4 1 2 1 2 4 5 3 2 1 9 5 4 5 5 4 5 5 5 3 5 2 7 9 6 7 8 8 9 8 7
16 3 3 5 5 2 5 4 8 2 5 7 8 2 3 2 1 3 4 4 5 9 8 3 7 0 3 1 4 2 3 3 1 1 1 3 8 11 5 7 7 8 7 8 7
2 3 3 7 4 4 5 5 2 3 6 3 2 3 4 4 5 1 3 2 4 6 0 2 6 2 1 2 1 3 4 3 2 2 6 6 5 8 8 10 10 10 8 7 6
4 4 3 8 3 5 3 3 4 5 8 4 3 5 4 4 2 3 5 4 9 4 3 2 4 6 1 5 7 2 2 1 1 4 4 5 6 8 9 8 9 9 8 7 6
3 3 5 6 5 2 2 6 5 6 9 7 6 5 4 5 4 3 4 4 13 6 5 3 3 5 10 1 3 4 6 6 4 4 4 2 12 8 8 8 6 10 8 5 5
3 3 5 4 5 4 7 6 5 10 9 9 9 8 6 5 5 1 7 3 21 11 7 5 3 5 10 5 2 2 4 4 2 1 7 3 12 2 5 7 9 9 9 6 4
3 5 6 7 3 4 7 5 7 7 5 6 6 5 7 6 4 8 6 5 18 11 22 3 4 7 9 7 1 5 4 5 6 3 4 13 24 27 26 15 15 10 9 6 6
5 4 1 5 5 4 2 6 6 10 7 7 3 10 6 6 8 4 4 12 9 16 8 4 5 4 5 8 8 14 14 12 12 18 12 24 23 29 26 18 17 13 6 7 7
4 4 4 2 3 6 6 6 6 7 4 5 5 12 9 5 6 17 10 8 11 5 8 7 5 8 17 13 16 23 20 17 21 17 17 22 28 28 22 15 8 9 6 8 7
2 2 1 4 4 3 1 3 8 7 5 3 12 15 10 12 7 16 17 17 20 17 13 10 6 6 21 10 12 16 17 22 13 13 9 12 17 11 13 10 9 8 8 11 8
Wind_Direction
355 349 341 335 329 325 322 318 315 314 315 319 326 330 331 333 328 15 282 239 328 347 4 339 25 351 38 358 357 117 28 243 250 211 249 308 4 293 267 256 304 260 260 291 171
357 352 346 339 330 323 320 316 314 313 315 317 322 325 331 336 333 289 207 321 343 357 15 21 356 351 359 304 330 133 201 237 219 220 263 280 288 306 302 289 284 289 292 325 160
357 353 346 342 334 325 318 314 311 310 312 313 317 322 326 337 314 238 185 324 323 30 150 280 287 322 340 340 255 220 228 253 265 263 264 275 270 217 296 280 233 281 308 306 196
359 355 349 340 331 324 319 312 306 304 305 309 314 319 321 274 317 189 196 295 337 8 25 15 9 26 314 285 306 297 253 240 274 261 276 254 264 257 224 253 263 268 288 289 221
358 355 351 345 334 325 318 312 306 300 303 308 311 321 344 331 249 172 147 68 35 30 51 30 48 15 285 290 309 221 268 277 274 276 267 266 257 246 252 259 264 276 272 262 225
355 353 349 345 339 329 319 312 304 298 297 300 307 326 189 262 116 145 137 126 100 81 56 70 122 232 273 268 225 253 269 278 273 271 258 253 269 176 255 249 259 260 258 256 233
352 350 347 344 339 333 322 310 303 293 287 286 284 260 213 239 127 160 150 177 166 147 51 221 151 81 357 288 294 278 299 301 267 275 255 188 293 229 260 279 276 288 281 280 230
349 347 343 340 338 332 324 310 302 290 273 242 198 151 243 325 119 166 163 291 225 215 200 243 164 204 176 306 314 303 329 350 295 310 280 148 271 280 273 254 266 279 286 281 244
348 345 342 338 335 333 326 317 313 316 153 144 119 155 272 114 223 235 160 199 156 238 249 228 90 270 357 5 342 346 296 279 312 288 243 168 282 249 278 281 289 277 265 262 281
346 344 341 339 334 334 328 305 112 95 89 189 20 43 271 240 202 174 182 142 156 313 38 101 49 358 358 82 276 280 311 297 257 280 325 296 270 273 250 245 252 259 252 258 267
347 343 339 337 334 334 348 13 11 334 59 203 202 234 238 144 118 195 163 127 120 87 225 239 14 239 246 212 222 264 265 269 276 281 271 256 268 279 272 224 240 240 234 236 246
346 342 338 334 331 325 31 73 132 220 307 253 244 281 253 196 287 219 130 167 176 236 146 3 236 241 234 222 219 237 277 282 283 261 266 295 286 275 275 223 226 234 243 231 240
343 341 336 330 324 7 20 111 115 118 276 293 211 191 194 140 226 245 154 172 208 250 203 193 235 95 191 266 275 242 226 260 261 326 286 316 299 331 310 239 208 236 238 235 219
339 337 333 332 31 326 357 96 130 108 36 273 258 284 93 116 279 144 186 175 247 244 243 231 268 217 204 246 181 291 212 259 292 6 304 48 285 308 317 314 278 270 239 240 217
335 332 329 327 293 343 302 139 120 69 8 257 201 137 108 182 311 179 165 98 235 252 90 261 232 218 225 222 159 234 278 266 278 267 350 336 59 272 325 312 302 307 278 258 240
332 329 327 171 204 260 307 93 53 43 257 312 126 243 299 206 257 85 115 93 270 285 225 252 311 244 218 224 195 348 339 12 62 73 0 239 125 283 269 237 300 291 294 296 272
331 329 330 293 321 330 353 39 35 144 310 301 307 169 246 240 261 177 189 200 210 346 331 312 223 258 177 247 78 102 47 329 347 9 234 172 56 247 278 275 253 279 294 305 293
334 343 354 21 290 352 53 56 170 249 271 336 341 294 241 27 255 228 292 286 219 146 313 335 323 191 184 210 182 177 150 154 267 283 288 96 235 255 244 297 287 274 280 297 288
337 344 42 334 338 49 78 84 214 205 288 329 323 284 292 55 233 349 224 245 232 176 177 173 273 325 234 153 143 174 182 172 242 71 358 242 282 295 290 292 313 319 318 324 317
29 9 352 320 348 52 74 244 282 31 319 341 271 31 320 317 344 286 263 212 282 197 60 274 301 227 305 114 28 177 168 68 13 298 293 270 273 245 304 301 321 331 320 317 311
35 55 275 327 85 49 151 252 315 341 7 326 312 301 276 290 282 275 277 341 349 341 190 165 148 287 354 203 186 141 241 187 136 172 208 295 244 219 247 257 275 286 295 303 302
18 43 315 346 50 8 24 314 320 337 16 336 350 358 338 327 301 277 253 24 352 331 322 298 187 259 236 290 174 173 197 166 146 245 244 211 267 233 238 256 257 274 281 283 311
33 305 334 28 48 359 322 333 7 16 22 5 357 16 4 318 318 343 335 93 17 11 4 329 282 329 327 16 29 210 203 197 133 104 204 217 268 243 252 277 264 268 277 265 244
51 15 345 34 37 26 353 345 339 23 68 4 14 32 352 345 8 314 325 328 337 342 329 242 233 212 238 253 345 252 204 200 191 211 264 245 281 285 284 283 284 257 250 230 219
27 51 73 353 0 344 330 360 347 7 1 0 63 35 2 297 307 292 345 329 318 310 330 38 275 262 283 302 293 277 273 264 239 250 240 269 271 273 282 294 295 270 241 195 195
67 29 3 295 311 345 353 16 50 347 310 342 25 339 324 253 277 303 320 319 268 310 5 339 283 332 298 281 271 273 269 258 255 258 249 250 264 266 285 284 281 265 233 201 188
344 8 69 309 345 341 21 32 331 339 270 293 337 321 302 283 301 290 270 259 252 258 257 256 271 292 276 298 292 283 244 235 246 238 227 246 256 311 301 275 264 264 219 195 190